Preview of NWS' New Version of Forecast
This preview is not operational and should not be used for support decisions.

Regional Weather Roundup (RWR)

Issued by National Weather Service (NWS)

                            
000
ASPQ40 PGUM 190510
RWRPQ 
WEATHER ROUNDUP FOR THE MARIANAS AND MICRONESIA
NATIONAL WEATHER SERVICE TIYAN GU
300 PM CHST TUE FEB 19 2019

GUZ001>004-190600-
MARIANA ISLANDS-
  
CITY           SKY/WX    TMP DP  RH WIND       PRES   REMARKS
GUAM AIRPORT   PTSUNNY   81  79  94 NE24G32   29.98F FOG              
ANDERSEN AFB   DRIZZLE   77  72  83 NE22G31   29.98F                  
ROTA AIRPORT   LGT RAIN  75  73  94 E18       29.97F                  
TINIAN AP      PTSUNNY  N/A N/A N/A E21G29    29.95F                  
SAIPAN AP      CLOUDY    82  70  65 NE24G31   29.97F                  

$$

PMZ161-190600-
REPUBLIC OF PALAU-
  
CITY           SKY/WX    TMP DP  RH WIND       PRES   REMARKS
KOROR AP       NOT AVBL                                               
KOROR WSO      NOT AVBL                                               

$$

PMZ171>174-190600-
FEDERATED STATES OF MICRONESIA-
  
CITY           SKY/WX    TMP DP  RH WIND       PRES   REMARKS
YAP AIRPORT    PTSUNNY   88  75  66 NE12G18   29.93F HX  97           
CHUUK AP       CLOUDY    84  73  70 NE16G26   29.77F HX  91           
POHNPEI AP     LGT RAIN  79  77  94 E21       29.66F                  
POHNPEI WSO    LGT RAIN  79  77  94 NE15G32   29.70F                  
KOSRAE AP      NOT AVBL                                               

$$

PMZ181-190600-
REPUBLIC OF THE MARSHALL ISLANDS-
  
CITY           SKY/WX    TMP DP  RH WIND       PRES   REMARKS
KWAJALEIN AP   SUNNY     86  75  70 E23       29.80R HX  95           
MAJURO AP      PTSUNNY   84  77  79 E23       29.79R HX  94           
MAJURO WSO     PTSUNNY   82  75  78 E9        29.78R                  

$$